ORBWEAVER 1 (43795 NORAD) Tracking and Keplerian Element Data

This shows tracking and keplerian element data for the satellite.

Feedback or suggestion? Click here.




ElementValue
Catalog43795
NameORBWEAVER 1
Epoch Orbit30222
Epoch Day160.19314268
Epoch Year2024
RAAN233.4304
Inclination97.5295
Eccentricity0.0004525
Argument of Perigee222.9854
Mean Anonmoly137.1039
Mean Motion15.40471919
Decay Rate0.00116528
L11 43795U 18099AP 24160.19314268 .00116528 00000+0 28374-2 0 9990
L22 43795 97.5295 233.4304 0004525 222.9854 137.1039 15.40471919302228



Live tracking and technical data element details for ORBWEAVER 1 (NORAD 43795). ORBWEAVER 1 can be tracked NOW for your location showing map with azimuth and elevation plus other details from your city location.







IsCatalogInMostPopularTable: catalog: 43795, numindb: 321
Update: records affected: 1



GetName: 43795 ORBWEAVER 1

Hit Count: updated at: Thu, 15 May 2025 18:32:04 GMT